Regional Weather Roundup
Issued by NWS

Home | Current Version | Previous Version | Text Only | Print | Product List | Glossary Off
Versions: 1 2 3 4 5 6 7 8 9 10 11 12 13 14 15 16 17 18 19 20 21 22 23 24 25 26 27 28 29 30 31 32 33 34 35 36 37 38 39 40 41 42 43 44 45 46 47 48 49 50

429
ASUS43 KMPX 231010
RWRMN
WEATHER ROUNDUP FOR MINNESOTA
NATIONAL WEATHER SERVICE TWIN CITIES/CHANHASSEN MN
500 AM CDT SAT JUL 23 2016


NOTE: "FAIR" INDICATES FEW OR NO CLOUDS BELOW 12,000 FEET WITH NO
SIGNIFICANT WEATHER AND/OR OBSTRUCTIONS TO VISIBILITY. N/A MEANS
CURRENT SKY AND/OR WEATHER CONDITIONS ARE NOT AVAILABLE.

MNZ060>063-068>070-231100-
   Twin Cities Metro

CITY           SKY/WX    TMP DP  RH WIND       PRES   REMARKS
TWIN CITIES    PTCLDY    77  66  68 E5        29.96S
ST PAUL        CLOUDY    72  68  87 CALM      29.97R
CRYSTAL        CLOUDY    73  65  75 CALM      29.95S
BLAINE         CLOUDY    70  68  94 CALM      29.97S
LAKEVILLE      CLOUDY    68  68 100 CALM      29.97R
EDEN PRAIRIE   CLOUDY    76  68  76 NE5       29.95S
LAKEVILLE      CLOUDY    68  68 100 CALM      29.97R
SOUTH ST PAUL  CLOUDY    73  67  81 CALM      29.96S
LAKE ELMO      FAIR      68  66  94 NE3       29.99R
$$
MNZ001>005-007-008-013>017-022>024-027-028-231100-
   Northwest Minnesota

CITY           SKY/WX    TMP DP  RH WIND       PRES   REMARKS
BEMIDJI        CLOUDY    64  63  94 E3        29.98F
HALLOCK        CLOUDY    66  61  82 E8        29.90F
ROSEAU         CLOUDY    63  57  82 E6        29.96F
WARROAD        MOCLDY    63  57  82 CALM      29.98R
THIEF RVR FALL CLOUDY    66  60  81 SE8       29.95F
CROOKSTON      CLOUDY    70  63  78 E10       29.89F
FOSSTON        CLOUDY    66  64  94 E5        29.96F
DETROIT LAKES  CLOUDY    73  61  64 E8        29.97S
MOORHEAD       CLOUDY    75  61  60 E10G18    29.86F
PARK RAPIDS    CLOUDY    71  63  75 SE3       29.98F
MAHNOMEN       FAIR      68  62  79 E5        29.95F
$$
MNZ006-009>011-018-025>026-231100-
   North Central Minnesota

CITY           SKY/WX    TMP DP  RH WIND       PRES   REMARKS
BAUDETTE       MOCLDY    61  60  97 CALM      29.99F
FLAG ISLAND    CLOUDY    70  61  73 E7        29.97S
INTL FALLS     CLOUDY    56  55  97 CALM      29.99F
WASKISH        CLOUDY    61  59  94 E6        29.97F
BIG FORK       PTCLDY    55  55 100 CALM      30.00F
LONGVILLE      CLOUDY    63  63 100 CALM      29.98F
GRAND RAPIDS   PTCLDY    61  60  97 CALM      30.02F
CRANE LAKE     PTCLDY    54  54 100 CALM      30.02F
ORR            CLOUDY    55  54  94 CALM      29.98F
COOK           PTCLDY    55  55 100 CALM      30.01F
WALKER         FAIR      62  62  97 CALM      29.98F
$$
MNZ012-019>021-037-231100-
   Northeast Minnesota

CITY           SKY/WX    TMP DP  RH WIND       PRES   REMARKS
DULUTH         MOCLDY    64  59  83 CALM      30.01F
ELY            PTCLDY    55  54  94 CALM      30.02F
HIBBING        PTCLDY    54  54 100 CALM      30.01F
EVELETH        FOG       58  57  97 CALM      30.02F VSB 3/4
DULUTH HARBOR  MOCLDY    70  64  83 CALM      29.99F
TWO HARBORS    PTCLDY    63  57  82 CALM      29.99F
SILVER BAY     CLEAR     57  57 100 CALM      30.00S
GRAND MARAIS     N/A     72  55  55 N9        29.97R
G MARAIS ARPRT CLOUDY    61  54  77 N7        30.05R
$$
MNZ029>031-032-039>041-046>048-054>057-064-231100-
   West Central Minnesota

CITY           SKY/WX    TMP DP  RH WIND       PRES   REMARKS
FERGUS FALLS   PTCLDY    75  64  69 E10G16    29.91F
WHEATON        MOCLDY    73  70  88 SE6       29.92F
MORRIS         CLOUDY    73  66  78 E8        29.92F
ALEXANDRIA     CLOUDY    73  68  84 E10       29.97F
ELBOW LAKE     FAIR      73  70  88 SE13      29.92F
WADENA         CLOUDY    68  63  83 E3        29.97F
GLENWOOD       PTCLDY    70  66  88 E8        29.97F
APPLETON       CLOUDY    73  66  78 E8        29.92S
BENSON         MOCLDY    73  64  73 SE7       29.92F
ORTONVILLE     CLOUDY    73  66  78 E8        29.92S
MADISON        CLOUDY    72  70  94 E6        29.92S
WILLMAR        FAIR      75  68  78 E6        29.96S
$$
MNZ033>034-036-042>043-049>051-058-059-231100-
   Central Minnesota

CITY           SKY/WX    TMP DP  RH WIND       PRES   REMARKS
ST CLOUD       CLOUDY    71  67  87 E6        29.97S
SAUK CENTRE    FAIR      72  67  85 NE8       29.97F
PAYNESVILLE    CLOUDY    69  69  99 NE3       29.97F
AITKIN         FOG       64  61  88 CALM      29.98F VSB 1
PINE RIVER     MOCLDY    64  63  94 CALM      30.01F
BRAINERD       MOCLDY    68  63  84 CALM      29.99F
STAPLES        CLOUDY    70  63  78 CALM      29.97F
LONG PRAIRIE   FAIR      70  68  94 NE5       29.98F
LITTLE FALLS   CLOUDY    70  64  83 CALM      29.99F
LITCHFIELD     CLOUDY    73  70  88 E6        29.96F
BUFFALO        CLOUDY    70  64  82 CALM      29.97S
MAPLE LAKE     CLOUDY    70  66  89 CALM      29.98S
HUTCHINSON     CLOUDY    74  69  84 E7        29.96F
$$
MNZ037-044-045-052-053-231100-
   East Central Minnesota

CITY           SKY/WX    TMP DP  RH WIND       PRES   REMARKS
PRINCETON      MOCLDY    72  66  83 S3        29.98S
MORA           CLOUDY    70  61  73 CALM      30.00F
CAMBRIDGE      PTCLDY    70  63  78 CALM      29.97S
RUSH CITY      PTCLDY    67  65  91 CALM      29.99R
MOOSE LAKE     CLOUDY    63  61  94 CALM      29.98F
HINCKLEY       FAIR      66  63  88 N3        29.99F
CLOQUET        PTCLDY    63  57  82 CALM      30.01F
MCGREGOR       CLOUDY    64  63  94 CALM      30.00F
$$
MNZ071>073-080-081-089-090-097-098-231100-
   Southwest Minnesota

CITY           SKY/WX    TMP DP  RH WIND       PRES   REMARKS
MONTEVIDEO     CLOUDY    72  70  94 SE3       29.94S
GRANITE FALLS  CLOUDY    74  71  90 NE5       29.93F
CANBY          CLOUDY    72  69  90 CALM      29.92F
MARSHALL       CLOUDY    75  74  96 SE3       29.91F
REDWOOD FALLS  CLOUDY    73  71  93 E8        29.92S
OLIVIA         MOCLDY    73  68  83 E6        29.93F
PIPESTONE      CLOUDY    79  77  94 E6        29.91F
WINDOM         PTCLDY    79  75  89 SE8       29.91F
WORTHINGTON    CLOUDY    78  77  96 E7        29.91F
JACKSON        CLOUDY    79  75  89 SE7       29.92F FOG
TRACY          FOG       76  75  99 E3        29.91F VSB 1/4
SLAYTON        CLOUDY    77  76  97 SE5       29.92F FOG
$$
MNZ065>067-074>077-082>085-091>093-231100-
   South Central Minnesota

CITY           SKY/WX    TMP DP  RH WIND       PRES   REMARKS
MANKATO        CLOUDY    79  73  83 SE8       29.94F
NEW ULM        MOCLDY    77  75  94 E7        29.92F
ST JAMES       CLOUDY    72  72 100 NE5       29.93F FOG
FAIRMONT       CLOUDY    77  59  53 SE6       29.91F
GLENCOE        CLOUDY    74  70  89 E3        29.95S
FARIBAULT      CLOUDY    75  73  94 E5        29.97S
OWATONNA       MOCLDY    77  75  94 E3        29.97S
WASECA         CLOUDY    77  75  94 E7        29.97S
ALBERT LEA     CLOUDY    79  75  89 E5        29.96S
$$
MNZ078>079-086>088-094>096-231100-
   Southeast Minnesota

CITY           SKY/WX    TMP DP  RH WIND       PRES   REMARKS
ROCHESTER      CLOUDY    76  76 100 S3        29.99F FOG
RED WING       CLOUDY    70  66  88 CALM      29.96S
STANTON        PTCLDY    70  68  94 CALM      29.95S
DODGE CENTER   CLOUDY    75  73  94 SE6       29.99R FOG
WINONA         CLEAR     73  72  94 CALM      29.97S
AUSTIN         MOCLDY    75  73  94 SE3       29.97F
PRESTON        CLOUDY    75  73  94 SE3       30.00F FOG
$$
ABBREVIATIONS USED IN REMARKS
   TC - TEMPERATURES IN CELSIUS
  WCI - WIND CHILL INDEX
   HX - HEAT INDEX
  VSB - VISIBILITY
$$




USA.gov is the U.S. government's official web portal to all federal, state and local government web resources and services.